Retour au catalogue

STARLINK-3271

ActifCommunicationsVLEO
NORAD 50167·PAYLOAD·🇺🇸 United States

Lancé Dec 18, 2021 depuis Vandenberg Space Force Base

Loading…

Prochains Passages (prochaines 24 heures)

TLE

FraisSource: CelesTrak SupGP

Époque: Sep 14, 2026, 21:06 UTC

1 50167C 21125M   26257.87965278 -.00020673  00000+0 -59168-3 0  2572
2 50167  53.1579 118.7195 0001346  83.6666 328.7826 15.35397970    18

Suivez STARLINK-3271 en temps réel avec AllMySat

Download on the App Store